User: anonymous   Login
Location: NJAA Observatory
(40.6819°N, 74.8979°W)
Time: 19:11:43
(UTC-05:00)
Language:

Cosmos 2263 Rocket - Orbit

View from above orbital plane
View from above orbital plane
View from above satellite
View from above satellite

Ground track
Ground track

The orbit data is extracted from the following two-line orbital elements,

1 22803U 93059B   16342.18177026  .00000064  00000-0  55693-4 0  9991
2 22803  70.9909 294.0298 0018989 312.7142  47.2382 14.16760501201088
Epoch (UTC): 07 December 2016 04:21:44
Eccentricity: 0.0018989
inclination: 70.9909°
perigee height: 822 km
apogee height: 850 km
right ascension of ascending node: 294.0298°
argument of perigee: 312.7142°
revolutions per day: 14.16760501
mean anomaly at epoch: 47.2382°
orbit number at epoch: 20108

The dashed part of the orbit path shows where the satellite is in the earth's shadow,  

DLR